Location: Anjeux
(47.8815°N, 6.2076°E)
Time: 02:38:16
(UTC+00:00)

First-Move - Pass Details

Date: 09 December 2021
Orbit: 574 x 664 km, 97.6° (Epoch: 22 January)

Event Time Altitude Azimuth Distance (km) Brightness Sun altitude
Rises 05:12:37 0° 3° (N) 3,013 ? -19.1°
Reaches altitude 10° 05:15:08 10° 351° (N) 2,099 ? -18.7°
Enters shadow 05:15:35 12° 347° (NNW) 1,954 ? -18.7°
